EW9963 Weather Reports


time (UTC)temp
F
wind
direction
speed
knots
gust
knots
rain 1hr
in
rain 24hr
in
rain mn
in
humidity
%
barometer
mb
20260906101547 68 0 0.0 0.0 0.00 0.17 0.01 93 1010.6
20260906100050 68 0 0.0 0.0 0.00 0.17 0.01 93 1010.8
20260906094605 68 0 0.0 0.0 0.00 0.17 0.01 92 1010.7
20260906093116 69 0 0.0 0.9 0.01 0.17 0.01 92 1010.7
20260906091546 69 0 0.0 0.9 0.01 0.17 0.01 92 1010.6
20260906090053 69 0 0.0 0.9 0.01 0.17 0.01 92 1010.5
20260906084549 69 0 0.0 0.9 0.01 0.17 0.01 92 1010.3
20260906083049 69 0 0.0 0.9 0.00 0.16 0.00 92 1010.3
20260906081555 69 0 0.0 0.0 0.00 0.16 0.00 92 1010.3
20260906080053 69 0 0.0 0.9 0.00 0.16 0.00 92 1010.4
20260906074553 69 0 0.0 0.0 0.00 0.16 0.00 92 1010.4
20260906073050 69 0 0.0 0.0 0.00 0.16 0.00 92 1010.4
20260906071546 69 0 0.0 0.0 0.00 0.16 0.00 92 1010.5
20260906070050 70 143 0.0 2.6 0.00 0.16 0.00 92 1010.6
20260906064548 70 0 0.0 0.0 0.00 0.16 0.00 92 1010.7
20260906063050 70 0 0.0 0.0 0.00 0.16 0.00 92 1010.8
20260906061549 70 0 0.0 0.0 0.00 0.16 0.00 92 1011.0
20260906060047 70 0 0.0 0.0 0.00 0.16 0.00 92 1011.0
20260906054602 70 0 0.0 0.0 0.00 0.16 0.00 91 1011.2
20260906053050 70 0 0.0 0.9 0.00 0.16 0.00 92 1011.5
20260906051558 70 0 0.0 0.9 0.00 0.16 0.00 92 1011.5
20260906050105 70 0 0.0 0.0 0.00 0.16 0.00 91 1011.4
20260906044557 70 0 0.0 0.9 0.00 0.16 0.00 91 1011.4
20260906043048 70 0 0.0 0.9 0.00 0.16 0.00 91 1011.5
20260906041547 71 0 0.0 0.9 0.00 0.16 0.00 91 1011.3
20260906034550 71 0 0.0 0.9 0.00 0.16 0.16 91 1011.3
20260906033049 71 0 0.0 0.9 0.00 0.16 0.16 91 1011.6
20260906031552 71 0 0.0 0.0 0.00 0.16 0.16 91 1011.7
20260906030049 71 0 0.0 1.7 0.00 0.16 0.16 90 1011.6
20260906024551 71 0 0.0 0.0 0.00 0.16 0.16 90 1011.9
20260906023052 71 0 0.0 0.0 0.00 0.16 0.16 90 1011.7
20260906021551 71 157 0.0 0.9 0.00 0.16 0.16 90 1011.5
20260906020049 71 0 0.0 0.9 0.00 0.16 0.16 90 1011.1
20260906014620 71 0 0.0 0.0 0.00 0.16 0.16 90 1011.0
20260906013058 72 0 0.0 0.9 0.00 0.16 0.16 90 1010.9
20260906011548 72 0 0.0 0.9 0.00 0.16 0.16 89 1010.7
20260906010053 72 0 0.0 0.9 0.00 0.16 0.16 90 1010.7
20260906004606 72 0 0.0 0.9 0.00 0.16 0.16 89 1010.6
20260906003059 73 0 0.0 0.9 0.01 0.16 0.16 89 1010.6
20260906001549 73 147 0.0 3.5 0.01 0.16 0.16 89 1011.0
20260906000050 73 171 0.9 3.5 0.01 0.16 0.16 89 1010.8
20260905234603 73 0 0.0 1.7 0.01 0.16 0.16 88 1011.3
20260905233050 73 146 0.9 3.5 0.00 0.15 0.15 87 1011.7
20260905231548 74 193 0.0 1.7 0.00 0.15 0.15 86 1011.6
20260905230053 74 0 0.0 2.6 0.00 0.15 0.15 85 1011.3
20260905224548 74 16 1.7 11.3 0.03 0.15 0.15 86 1011.2
20260905223048 75 0 0.0 5.2 0.15 0.15 0.15 86 1011.3
20260905221611 75 14 0.0 4.3 0.15 0.15 0.15 82 1011.2
20260905220049 77 171 1.7 6.1 0.15 0.15 0.15 82 1010.4
20260905214547 84 213 1.7 9.6 0.12 0.12 0.12 71 1010.9
20260905213103 90 355 7.0 15.6 0.00 0.00 0.00 50 1010.1
20260905211550 97 0 0.9 3.5 0.00 0.00 0.00 59 1009.0
20260905210052 98 0 0.0 2.6 0.00 0.00 0.00 57 1009.1
20260905204547 98 0 0.9 3.5 0.00 0.00 0.00 55 1009.3
20260905203053 97 158 1.7 6.1 0.00 0.00 0.00 55 1009.1
20260905201609 97 179 2.6 7.8 0.00 0.00 0.00 53 1009.3
20260905200051 97 146 2.6 7.0 0.00 0.00 0.00 54 1009.3
20260905194549 97 204 0.0 4.3 0.00 0.00 0.00 55 1009.5
20260905193107 97 0 0.0 5.2 0.00 0.00 0.00 58 1009.7
20260905191549 96 163 0.9 5.2 0.00 0.00 0.00 59 1010.0
20260905190048 96 150 2.6 7.0 0.00 0.00 0.00 59 1010.2
20260905184557 96 178 3.5 6.1 0.00 0.00 0.00 59 1010.6
20260905183050 95 137 0.9 7.0 0.00 0.00 0.00 59 1011.0
20260905181605 95 148 1.7 7.0 0.00 0.00 0.00 62 1011.1
20260905180052 94 150 0.9 4.3 0.00 0.00 0.00 63 1011.5
20260905174556 94 0 0.9 8.7 0.00 0.00 0.00 63 1011.5
20260905173051 93 104 0.0 5.2 0.00 0.00 0.00 64 1011.6
20260905171557 93 309 1.7 5.2 0.00 0.00 0.00 63 1011.9
20260905170050 92 0 0.0 7.0 0.00 0.00 0.00 66 1012.1
20260905164546 92 134 0.9 6.1 0.00 0.00 0.00 65 1012.3
20260905163048 92 181 1.7 5.2 0.00 0.00 0.00 67 1012.9
20260905161600 91 229 0.9 6.1 0.00 0.00 0.00 69 1013.0
20260905160048 91 299 0.9 3.5 0.00 0.00 0.00 69 1013.2
20260905154547 90 0 0.9 3.5 0.00 0.00 0.00 72 1013.4
20260905153048 89 183 1.7 5.2 0.00 0.00 0.00 70 1013.4
20260905151601 89 128 0.9 4.3 0.00 0.00 0.00 71 1013.6
20260905150048 88 213 0.0 2.6 0.00 0.00 0.00 74 1013.8
20260905144549 87 98 0.0 3.5 0.00 0.00 0.00 76 1013.9
20260905143045 85 0 0.9 3.5 0.00 0.00 0.00 77 1013.8
20260905141552 85 0 0.9 2.6 0.00 0.00 0.00 78 1013.9
20260905134556 82 153 1.7 7.0 0.00 0.00 0.00 83 1014.0
20260905133049 81 132 1.7 4.3 0.00 0.00 0.00 83 1014.2
20260905131551 80 0 0.9 5.2 0.00 0.00 0.00 86 1014.2
20260905130046 79 194 0.9 2.6 0.00 0.00 0.00 87 1014.2
20260905124552 78 146 1.7 6.1 0.00 0.00 0.00 89 1014.1
20260905123049 77 0 0.9 3.5 0.00 0.00 0.00 91 1014.1
20260905121545 76 200 0.9 3.5 0.00 0.00 0.00 92 1014.0
20260905120052 76 0 0.0 1.7 0.00 0.00 0.00 92 1014.0
20260905114550 75 132 0.9 3.5 0.00 0.00 0.00 92 1013.9
20260905113047 74 156 0.0 1.7 0.00 0.00 0.00 91 1013.7
20260905111554 74 0 0.0 0.0 0.00 0.00 0.00 91 1013.6
20260905110057 74 0 0.0 0.9 0.00 0.00 0.00 91 1013.5
20260905104603 74 167 0.0 0.9 0.00 0.00 0.00 91 1013.3
20260905103049 74 0 0.0 0.0 0.00 0.00 0.00 91 1013.3